Regional Weather Roundup
Issued by NWS

Home | Current Version | Previous Version | Graphics & Text | Print | Product List | Glossary Off
Versions: 1 2 3 4 5 6 7 8 9 10 11 12 13 14 15 16 17 18 19 20 21 22 23 24 25 26 27 28 29 30 31 32 33 34 35 36 37 38 39 40 41 42 43 44 45 46 47 48 49 50

000
ASUS43 KOAX 231610
RWRNE

WEATHER ROUNDUP FOR NEBRASKA
NATIONAL WEATHER SERVICE OMAHA NE
1100 AM CDT SAT MAY 23 2015

NOTES: SATELLITE DATA IS BEING USED TO AUGMENT CLOUD COVER ABOVE
       12000 FEET.
       "FAIR" INDICATES FEW OR NO CLOUDS BELOW 12,000 FEET WITH NO
       SIGNIFICANT WEATHER AND/OR OBSTRUCTIONS TO VISIBILITY.

  * THESE STATIONS DO NOT REPORT WEATHER SUCH AS RAIN...SNOW OR FOG.

NEZ001>004-019>022-054>056-231700-
NEBRASKA PANHANDLE

CITY           SKY/WX    TMP DP  RH WIND       PRES   REMARKS
SCOTTSBLUFF    CLOUDY    52  50  93 E9        30.03S
ALLIANCE       CLOUDY    53  51  93 SE14      30.03S
CHADRON        CLOUDY    54  49  83 E7        30.05R
KIMBALL          N/A    N/A N/A N/A MISG        N/A
SIDNEY         CLOUDY    52  51  97 E9        30.03F FOG
$$

NEZ057>060-069>072-079>082-231700-
SOUTHWEST NEBRASKA

CITY           SKY/WX    TMP DP  RH WIND       PRES   REMARKS
NORTH PLATTE   CLOUDY    54  52  93 SE10      30.07F
IMPERIAL       CLOUDY    54  52  93 SE16      30.03S FOG
LEXINGTON      CLOUDY    55  54  97 SE10      30.11S FOG
MCCOOK         CLOUDY    54  53  97 SE12      30.06F FOG
OGALLALA       CLOUDY    54  54  99 SE13      30.05S FOG
$$

NEZ005>010-023>029-035>040-094-231700-
NORTH CENTRAL NEBRASKA

CITY           SKY/WX    TMP DP  RH WIND       PRES   REMARKS
VALENTINE      CLOUDY    56  53  90 SE9       30.09F
AINSWORTH      CLOUDY    55  55  97 S10       30.10F
BROKEN BOW     CLOUDY    55  53  93 SE13      30.10F FOG
O`NEILL        CLOUDY    56  55  95 SE5       30.15S FOG
ORD            CLOUDY    54  51  90 S8        30.12S
THEDFORD       CLOUDY    56  54  91 SE12      30.10S
$$

NEZ041-046>049-061>064-073>077-083>087-231700-
SOUTH CENTRAL NEBRASKA

CITY           SKY/WX    TMP DP  RH WIND       PRES   REMARKS
GRAND ISLAND   CLOUDY    55  52  89 SE10      30.14F
AURORA         CLOUDY    57  54  89 SE14      30.13F
HASTINGS       CLOUDY    55  52  89 SE10      30.12F
HEBRON         CLOUDY    61  53  74 SE13      30.13F
HOLDREGE       CLOUDY    53  52  95 SE13      30.11S FOG
KEARNEY *      CLOUDY    54  52  94 SE13      30.12F
YORK           CLOUDY    57  54  88 SE13      30.15F
$$

NEZ011>018-030>034-042>045-231700-
NORTHEAST NEBRASKA

CITY           SKY/WX    TMP DP  RH WIND       PRES   REMARKS
NORFOLK        CLOUDY    58  53  84 SE12      30.16F
ALBION         CLOUDY    56  51  85 SE10      30.15F
BLAIR          CLOUDY    59  53  80 SE8       30.19F
COLUMBUS *     CLOUDY    57  48  72 SE7       30.19F
FREMONT        CLOUDY    59  54  83 SE12      30.19S
TEKAMAH        CLOUDY    64  53  67 SE13      30.19S
WAYNE          CLOUDY    59  54  82 S8        30.19S
$$

NEZ050>053-065>068-078-088>093-231700-
SOUTHEAST NEBRASKA

CITY           SKY/WX    TMP DP  RH WIND       PRES   REMARKS
LINCOLN        CLOUDY    60  55  83 SE10      30.18S
OMAHA EPPLEY   CLOUDY    61  54  77 S15       30.20S
BEATRICE       CLOUDY    58  54  85 SE8       30.16F
FALLS CITY     CLOUDY    61  55  81 SE12      30.19F
NEBRASKA CITY  CLOUDY    58  57  99 SE8       30.20S FOG
PLATTSMOUTH    CLOUDY    57  55  92 SE12      30.20S FOG
$$

NEZ044-045-051>053-067-231700-
OMAHA AREA

CITY           SKY/WX    TMP DP  RH WIND       PRES   REMARKS
OMAHA EPPLEY   CLOUDY    61  54  77 S15       30.20S
BLAIR          CLOUDY    59  53  80 SE8       30.19F
FREMONT        CLOUDY    59  54  83 SE12      30.19S
MILLARD        CLOUDY    59  55  88 SE7       30.18F FOG
OFFUTT AFB     CLOUDY    59  57  94 SE10      30.19S
PLATTSMOUTH    CLOUDY    57  55  92 SE12      30.20S FOG
WAHOO          CLOUDY    59  55  89 SE13      30.17F
$$



USA.gov is the U.S. government's official web portal to all federal, state and local government web resources and services.